TimeEDT,TemperatureF,Dew PointF,Humidity,Sea Level PressureIn,VisibilityMPH,Wind Direction,Wind SpeedMPH,Gust SpeedMPH,PrecipitationIn,Events,Conditions,WindDirDegrees,DateUTC
12:56 AM,80.1,73.0,79,30.11,9.0,WSW,4.6,-,N/A,,Clear,250,2013-07-18 04:56:00
1:56 AM,80.1,73.0,79,30.10,9.0,Calm,Calm,-,N/A,,Clear,0,2013-07-18 05:56:00
2:56 AM,79.0,73.0,82,30.09,8.0,WSW,3.5,-,N/A,,Clear,250,2013-07-18 06:56:00
3:56 AM,79.0,72.0,79,30.08,9.0,West,6.9,-,N/A,,Clear,260,2013-07-18 07:56:00
4:56 AM,78.1,72.0,81,30.09,8.0,West,4.6,-,N/A,,Clear,260,2013-07-18 08:56:00
5:56 AM,77.0,72.0,84,30.09,7.0,West,3.5,-,N/A,,Clear,270,2013-07-18 09:56:00
6:56 AM,79.0,72.0,79,30.10,8.0,West,5.8,-,N/A,,Clear,260,2013-07-18 10:56:00
7:56 AM,82.0,73.0,74,30.11,9.0,West,5.8,-,N/A,,Clear,260,2013-07-18 11:56:00
8:56 AM,86.0,73.0,65,30.11,10.0,WNW,8.1,-,N/A,,Clear,300,2013-07-18 12:56:00
9:56 AM,88.0,73.0,61,30.10,10.0,NNW,8.1,-,N/A,,Clear,330,2013-07-18 13:56:00
10:56 AM,90.0,73.9,59,30.10,10.0,Variable,4.6,-,N/A,,Clear,0,2013-07-18 14:56:00
11:56 AM,91.0,72.0,53,30.09,10.0,WNW,5.8,-,N/A,,Clear,300,2013-07-18 15:56:00
12:56 PM,93.0,70.0,47,30.08,10.0,North,5.8,-,N/A,,Clear,350,2013-07-18 16:56:00
1:56 PM,95.0,68.0,41,30.06,10.0,North,8.1,-,N/A,,Partly Cloudy,360,2013-07-18 17:56:00
2:56 PM,96.1,68.0,40,30.04,10.0,North,6.9,-,N/A,,Clear,350,2013-07-18 18:56:00
3:56 PM,96.1,68.0,40,30.01,10.0,North,5.8,-,N/A,,Partly Cloudy,350,2013-07-18 19:56:00
4:56 PM,95.0,69.1,43,30.00,10.0,NNW,4.6,-,N/A,,Scattered Clouds,330,2013-07-18 20:56:00
5:53 PM,93.2,71.6,49,30.01,10.0,SSW,13.8,18.4,N/A,,Overcast,210,2013-07-18 21:53:00
5:56 PM,90.0,73.0,57,30.01,10.0,SSW,12.7,18.4,N/A,,Mostly Cloudy,210,2013-07-18 21:56:00
6:56 PM,89.1,73.0,59,30.01,10.0,WSW,11.5,-,N/A,,Clear,250,2013-07-18 22:56:00
7:56 PM,87.1,71.1,59,30.01,10.0,WSW,4.6,-,N/A,,Partly Cloudy,250,2013-07-18 23:56:00
8:56 PM,82.9,73.0,72,29.99,10.0,SSW,4.6,-,N/A,,Clear,210,2013-07-19 00:56:00
9:56 PM,82.0,73.0,74,29.99,10.0,Calm,Calm,-,N/A,,Clear,0,2013-07-19 01:56:00
10:56 PM,82.9,73.0,72,29.99,10.0,Calm,Calm,-,N/A,,Clear,0,2013-07-19 02:56:00
11:56 PM,81.0,73.9,79,30.01,10.0,Calm,Calm,-,N/A,,Clear,0,2013-07-19 03:56:00